Flag for Slovakia

Past Weather in Žilina, Slovakia — Yesterday and Last 2 Weeks

Now
70 °F

Partly sunny.


Feels Like: 70 °F
Forecast: 71 / 54 °F
Wind: 3 mph from Southeast

Location: Dolny Hricov
Current Time: Sep 23, 2020 at 7:03:35 pm
Latest Report: Sep 23, 2020 at 6:00 pm
Visibility: N/A
Pressure29.77 "Hg
Humidity: 60%
Dew Point: 55 °F
Location of ŽilinaLocation

Past Weather in Žilina — Graph

°F

Žilina Temperature Yesterday

Maximum temperature yesterday: 77 °F (at 2:00 pm)
Minimum temperature yesterday: 46 °F (at 4:30 am)
Average temperature yesterday: 60 °F

High & Low Weather Summary for the Past Weeks

 TemperatureHumidityPressure
High84 °F (Sep 15, 5:00 pm)100% (Sep 9, 1:00 am)30.45 "Hg (Sep 9, 1:00 am)
Low41 °F (Sep 19, 6:30 am)34% (Sep 18, 1:00 pm)29.77 "Hg (Sep 23, 4:30 pm)
Average60 °F78%30.18 "Hg
* Reported Sep 8 6:00 pm — Sep 23 6:00 pm, Žilina. Weather by CustomWeather, © 2020

Note: Actual official high and low records may vary slightly from our data, if they occured in-between our weather recording intervals... More about our weather records

Žilina Weather History for the Previous 24 Hours

Scroll right to see more
 ConditionsComfort  
Time TempWeatherWind HumidityBarometerVisibility
6:00 pm
Wed, Sep 23
70 °FPartly sunny.3 mph60%29.77 "HgN/A
5:30 pm72 °FPartly sunny.6 mph57%29.77 "HgN/A
5:00 pm73 °FPartly sunny.3 mph53%29.77 "HgN/A
4:30 pm72 °FPartly sunny.5 mph57%29.77 "HgN/A
4:00 pm73 °FPartly sunny.7 mph57%29.80 "HgN/A
3:30 pm73 °FScattered clouds.5 mph57%29.80 "HgN/A
3:00 pm72 °FScattered clouds.6 mph57%29.80 "HgN/A
2:30 pm73 °FScattered clouds.7 mph57%29.80 "HgN/A
2:00 pm73 °FScattered clouds.9 mph53%29.83 "HgN/A
1:30 pm73 °FPartly sunny.5 mph57%29.83 "HgN/A
1:00 pm72 °FPartly sunny.2 mph57%29.83 "HgN/A
12:30 pm68 °FScattered clouds.2 mph69%29.83 "HgN/A
12:18 pm68 °FPartly sunny.1 mph69%29.83 "HgN/A
12:00 pm64 °FPartly sunny.2 mph73%29.86 "HgN/A
11:30 am61 °FPartly sunny.2 mph77%29.86 "HgN/A
11:00 am59 °FPartly sunny.3 mph82%29.86 "HgN/A
10:30 am59 °FPartly sunny.2 mph77%29.86 "HgN/A
10:00 am57 °FPartly sunny.3 mph82%29.86 "HgN/A
9:30 am57 °FPartly sunny.6 mph82%29.86 "HgN/A
9:00 am54 °FOvercast.5 mph88%29.86 "HgN/A
8:30 am52 °FSunny.2 mph94%29.86 "Hg10 mi
8:00 am52 °FSunny.2 mph94%29.86 "Hg10 mi
7:30 am50 °FSunny.1 mph100%29.86 "Hg10 mi
7:00 am50 °FFog.1 mph94%29.86 "HgN/A
6:30 am48 °FClear.2 mph100%29.86 "Hg10 mi
6:00 am50 °FPassing clouds.3 mph94%29.86 "HgN/A
5:30 am48 °FClear.2 mph94%29.89 "Hg10 mi
5:00 am48 °FClear.2 mph100%29.89 "Hg10 mi
4:30 am50 °FPassing clouds.3 mph94%29.89 "HgN/A
4:00 am50 °FClear.1 mph94%29.89 "Hg10 mi
3:30 am52 °FPassing clouds.3 mph94%29.89 "HgN/A
2:30 am52 °FClear.2 mph94%29.92 "Hg10 mi
2:00 am50 °FPassing clouds.3 mph94%29.92 "HgN/A
1:00 am50 °FClear.2 mph94%29.92 "Hg10 mi
12:30 am52 °FClear.2 mph94%29.95 "Hg10 mi
12:00 am50 °FClear.2 mph94%29.95 "Hg10 mi
11:30 pm
Tue, Sep 22
52 °FClear.2 mph94%29.95 "Hg10 mi
11:00 pm52 °FClear.2 mph94%29.95 "Hg10 mi
10:30 pm54 °FClear.1 mph94%29.95 "Hg10 mi
10:00 pm54 °FClear.1 mph88%29.95 "Hg10 mi
9:30 pm54 °FClear.1 mph94%29.98 "Hg10 mi
9:00 pm55 °FClear.1 mph88%29.98 "Hg10 mi
8:30 pm57 °FClear.1 mph82%29.98 "Hg10 mi
8:00 pm61 °FClear.2 mph72%29.95 "Hg10 mi
7:30 pm63 °FClear.3 mph68%29.95 "Hg10 mi
7:00 pm64 °FClear.2 mph68%29.95 "Hg10 mi
Weather by CustomWeather, © 2020

See weather overview